CAPE
87 52 21 1 0 1 4 3 7 0 0 19 38 42 43 0 0 0 0 1 0 0 0 0 0 0 0 0 0 0 0 0 0 0 0 0 0 0
103 26 110 16 7 7 2 20 17 16 0 13 15 50 67 40 26 20 12 10 4 0 0 0 0 0 0 0 0 0 0 0 0 0 0 0 0 0
46 27 61 15 0 0 54 9 16 22 1 0 8 39 32 45 38 43 51 44 44 38 18 6 0 0 0 0 0 0 0 0 0 0 0 0 0 0
208 166 40 151 60 68 21 27 8 15 23 17 6 39 0 68 62 41 33 35 28 30 18 0 2 0 0 0 0 0 0 0 0 0 0 0 0 0
155 224 130 129 129 45 97 68 69 67 66 5 36 65 9 30 30 61 38 37 18 23 11 7 3 0 0 0 0 0 0 0 0 0 0 0 0 0
289 218 281 217 117 115 64 56 109 87 81 21 6 26 75 69 67 16 1 20 9 16 17 21 0 0 0 0 0 0 0 0 0 0 0 0 0 0
261 275 216 397 279 241 132 172 60 16 2 0 0 0 0 0 0 0 3 6 8 3 0 0 0 0 0 0 0 0 0 0 0 0 0 0 0 0
302 533 393 371 204 66 39 22 11 3 9 7 3 0 0 9 22 7 13 0 0 0 0 0 0 0 0 0 0 0 6 0 0 0 0 0 0 0
656 601 685 654 543 181 30 5 17 6 7 5 4 2 19 44 37 26 12 0 0 0 0 0 0 0 0 0 3 14 4 0 0 0 0 0 0 0
609 638 637 808 580 338 92 22 8 32 55 18 4 13 36 60 87 10 0 0 0 0 0 5 0 0 9 32 16 14 2 0 0 0 0 0 0 0
310 488 719 1035 913 198 43 19 11 2 24 11 21 51 30 2 0 4 0 0 0 0 0 6 16 26 4 0 0 0 0 0 0 0 0 0 0 0
449 416 361 698 536 98 32 10 11 20 63 81 92 54 25 0 0 11 15 16 23 22 14 32 0 0 0 0 0 0 0 0 0 0 0 0 0 0
307 455 781 376 158 59 0 5 23 38 0 0 0 0 0 2 42 73 70 36 23 28 3 0 0 0 0 0 0 0 0 0 0 0 0 0 0 0
472 461 517 341 64 7 0 0 0 0 0 0 0 0 1 13 2 0 0 0 1 0 0 0 3 15 21 6 4 0 0 0 2 6 6 0 0 0
65 13 5 12 12 3 0 0 0 0 0 0 0 0 0 0 0 0 0 0 0 1 0 1 26 19 24 10 7 0 0 0 0 3 0 1 4 7
0 1 0 0 0 0 0 0 0 0 1 4 1 0 0 0 0 0 0 0 0 0 0 26 30 7 0 1 0 1 0 8 14 6 2 1 5 6
20 40 0 0 0 1 1 4 8 9 7 9 5 0 0 0 0 0 0 0 0 0 12 2 13 21 13 0 0 0 3 12 1 4 3 3 2 2
0 214 192 170 155 89 48 31 31 20 15 9 1 0 0 0 0 0 0 0 0 0 11 2 7 0 0 0 0 2 12 4 2 3 4 3 4 1
22 36 1 13 16 6 7 15 6 2 0 0 0 0 0 0 0 0 0 0 0 0 1 37 0 0 0 0 0 3 10 5 3 3 3 3 7 4
0 0 0 2 13 11 3 0 0 0 0 0 0 0 0 0 0 0 0 0 0 0 15 3 0 0 0 0 4 0 6 3 3 4 3 4 2 1
0 1 0 0 0 0 0 0 0 0 0 0 0 0 0 0 0 0 0 0 0 0 8 0 0 0 0 0 0 1 0 3 2 6 4 3 5 7
0 0 0 0 0 0 0 0 0 0 0 0 0 0 0 0 0 0 0 0 0 0 0 0 0 0 0 0 2 2 1 1 5 1 0 5 2 5
0 0 0 0 0 0 0 0 0 0 0 0 0 0 0 0 0 0 0 0 0 0 0 0 0 0 0 0 0 0 2 0 6 1 1 0 2 4
CIN
-118 -118 -103 -9 0 -2 -7 -7 -4 0 0 -22 -23 -15 -10 -3 0 0 -2 -4 0 0 0 0 0 0 0 0 0 0 0 0 0 0 0 0 0 0
-80 -121 -64 -51 -39 -79 -3 -9 -11 -8 0 -40 -40 -31 -13 -15 -14 -17 -10 -12 -4 0 0 0 0 0 0 0 0 0 0 0 0 0 0 0 0 0
-144 -134 -105 -112 0 0 -55 -28 -14 -11 -3 0 -31 -14 -16 -14 -16 -9 -8 -13 -11 -13 -22 -28 0 0 0 0 0 0 0 0 0 0 0 0 0 0
-116 -90 -109 -63 -70 -66 -33 -20 -21 -13 -5 -3 -10 -9 0 -7 -5 -9 -12 -11 -9 -8 -11 0 -28 0 0 0 0 0 0 0 0 0 0 0 0 0
-96 -94 -88 -55 -45 -100 -109 -141 -18 -8 -7 -5 -9 -11 -11 -11 -8 -8 -7 -14 -18 -22 -19 -20 -28 -11 0 0 0 0 0 0 0 0 0 0 0 0
-79 -72 -53 -42 -61 -62 -71 -36 -166 -46 -40 -18 -6 -5 -9 -5 -11 -22 -3 -18 -20 -12 -14 -5 0 0 0 0 0 0 0 0 0 0 0 0 0 0
-75 -57 -47 -21 -16 -28 -59 -80 -56 -68 -53 -3 0 0 0 0 0 0 -4 -3 -1 -2 0 0 0 0 0 0 0 0 0 0 0 0 0 0 0 0
-55 -21 -21 -13 -35 -92 -91 -93 -85 -89 -76 -63 -66 -32 0 -22 -15 -12 -22 0 0 0 0 0 0 0 0 0 0 0 -10 0 0 0 0 0 0 0
-19 -12 -8 -4 -24 -60 -102 -144 -130 -100 -65 -42 -74 -97 -20 -22 -17 -17 -8 0 0 0 0 0 0 0 0 0 -4 -5 -4 0 0 0 0 0 0 0
-2 -8 -14 -8 -48 -52 -99 -110 -102 -81 -69 -50 -40 -72 -54 -30 -21 -10 0 0 0 0 0 -3 0 0 -6 -3 -2 -13 -11 0 0 0 0 0 0 0
-22 -3 -4 -6 -21 -80 -76 -82 -94 -17 -69 -63 -35 -23 -25 -5 0 -23 0 0 0 0 0 -6 -6 -3 -2 -1 0 0 0 0 0 0 0 0 0 0
-17 -12 -21 -20 -44 -100 -91 -81 -96 -75 -26 -13 -18 -27 -40 0 -1 -51 -47 -34 -25 -5 -12 -2 0 0 0 0 0 0 0 0 0 0 0 0 0 0
-24 -9 -3 -55 -83 -106 -35 -87 -42 -7 0 0 0 0 0 -7 -12 -21 -33 -33 -9 -2 -3 0 0 0 0 0 0 0 0 0 0 0 0 0 0 0
-9 -11 -6 -42 -95 -125 0 0 0 0 0 0 0 0 -5 -8 -3 -8 0 0 -10 -5 0 0 -10 -7 -3 -3 -1 0 0 0 -1 0 0 0 -1 0
-81 -6 -141 -161 -124 -19 0 0 0 0 0 0 0 0 -1 0 0 0 0 0 0 -1 0 -1 -15 -16 -24 -8 -1 0 0 0 0 0 0 0 0 0
0 -33 -25 0 0 0 0 0 0 0 -6 -11 -1 0 0 0 0 0 0 0 0 0 0 -14 -21 -33 0 -25 0 0 0 0 0 0 0 0 0 0
-116 -101 -42 0 0 -10 -31 -54 -63 -45 -45 -29 -3 0 0 0 0 0 0 0 0 0 -6 -8 -14 -14 -33 0 0 0 -1 0 0 0 0 0 0 0
0 -14 -19 -14 -10 -37 -39 -22 -21 -21 -24 -8 -1 0 0 0 0 0 0 0 0 0 -3 -8 -15 0 0 0 0 0 0 -1 0 0 0 0 0 0
-78 -33 -1 -23 -25 -21 -29 -36 -26 -20 0 0 0 0 0 0 0 0 0 0 0 0 -3 -8 -1 0 0 0 0 -3 0 0 0 0 0 0 0 0
0 0 0 -3 -8 -14 -14 -2 0 0 0 0 0 0 0 0 0 0 0 0 0 0 -6 -19 0 0 0 0 0 -1 -1 0 0 0 0 0 0 0
0 -2 0 0 0 0 0 0 0 0 0 0 0 0 0 0 0 0 0 0 0 0 -7 0 0 0 0 0 0 0 -1 -2 0 0 0 0 0 0
0 0 0 0 0 0 0 0 0 0 0 0 0 0 0 0 0 0 0 0 0 0 0 0 0 0 0 0 0 0 0 0 -1 0 0 0 0 0
0 0 0 0 0 0 0 0 0 0 0 0 0 0 0 0 0 0 0 0 0 0 0 -1 0 0 0 0 0 0 0 0 0 0 0 0 0 0
Wind_Speed
13 13 14 16 19 20 19 18 19 22 21 21 26 18 14 15 17 16 19 21 18 14 12 12 13 15 17 15 15 15 18 23 31 30 30 32 35 37
9 12 10 13 20 20 17 18 18 20 22 21 26 27 23 23 22 21 23 24 21 15 14 14 16 17 18 19 20 18 18 20 28 36 36 34 34 35
6 12 15 14 15 17 20 21 19 16 17 22 26 26 28 29 26 25 26 27 26 20 19 20 18 16 16 18 18 18 18 20 23 35 39 38 38 37
5 7 12 12 10 14 17 17 17 18 19 20 26 27 26 25 24 25 28 28 28 27 28 22 18 18 18 17 18 18 19 21 24 29 37 41 40 40
5 4 5 7 11 12 16 17 20 20 23 22 24 26 28 28 31 26 27 27 29 25 23 25 25 19 19 19 20 21 20 21 24 31 36 37 38 41
6 6 4 6 9 11 14 16 16 21 24 26 28 32 32 31 27 31 32 27 25 24 25 26 29 27 23 21 20 22 22 25 30 36 39 39 41 43
6 7 8 8 10 11 14 15 18 24 26 29 31 32 36 38 39 37 36 30 30 30 34 35 33 32 32 29 27 30 32 33 36 39 41 43 46 48
10 10 10 12 12 13 14 16 20 24 26 27 26 30 33 36 37 37 37 37 34 32 34 37 35 36 34 32 31 35 36 37 39 39 40 44 48 51
11 12 12 13 12 14 16 19 21 21 25 22 22 24 30 34 34 35 34 31 35 36 37 37 31 33 28 29 34 33 41 45 40 44 49 53 57 60
11 13 13 14 13 16 18 23 29 25 22 19 20 22 26 29 30 29 32 31 28 27 23 32 31 31 30 31 34 37 37 43 50 56 59 60 61 63
15 15 14 15 16 16 20 22 24 29 24 23 21 23 24 23 25 29 30 29 30 28 28 31 32 33 36 38 40 42 45 47 54 57 58 61 62 64
14 14 13 14 15 16 18 23 25 27 25 25 26 25 26 27 23 22 26 28 28 32 28 33 38 41 43 39 37 41 44 49 52 54 58 56 55 53
14 12 12 12 14 18 17 23 25 23 27 27 28 29 27 24 23 22 20 21 27 30 31 37 38 37 37 47 42 42 46 50 52 53 49 46 53 51
13 13 13 16 17 18 17 20 21 25 28 28 29 27 27 25 27 29 28 27 27 30 31 32 34 37 40 48 48 44 48 49 49 50 44 50 53 53
15 15 18 21 20 19 18 18 21 24 25 25 24 26 28 29 31 31 28 28 29 30 31 30 33 37 39 43 45 48 55 58 52 41 50 50 52 50
13 16 17 16 17 19 18 15 18 20 20 21 24 25 24 27 29 29 31 32 35 32 28 30 34 35 38 40 40 44 41 53 51 50 50 53 53 49
13 13 13 15 17 16 16 17 16 17 18 19 22 26 27 29 28 30 31 33 31 34 32 35 33 32 32 39 41 38 34 51 49 47 48 47 47 44
12 13 13 16 17 16 15 15 16 14 15 19 22 25 27 28 28 28 28 28 32 32 33 35 36 37 39 34 29 35 39 52 46 42 43 41 38 34
15 16 18 18 15 16 16 16 16 15 17 21 23 22 24 24 26 27 27 29 29 32 32 31 35 39 40 46 35 35 52 50 43 39 36 34 30 31
14 13 14 18 19 16 17 19 21 22 24 25 26 26 24 24 25 26 27 29 30 30 28 31 34 35 36 38 36 39 48 45 38 37 36 34 29 26
11 16 20 20 20 20 20 20 20 20 20 21 21 18 22 25 26 27 28 29 32 31 30 30 31 30 25 28 34 35 46 45 38 35 34 32 25 20
18 19 20 19 19 18 18 18 16 14 13 13 16 22 22 24 25 27 28 30 31 30 33 25 27 33 34 31 34 39 41 45 37 30 29 30 24 20
16 17 18 17 16 13 13 14 13 11 14 17 19 21 23 22 25 27 29 29 30 30 34 30 26 32 35 33 34 36 44 43 39 31 27 26 24 19
Wind_Direction
346 352 5 352 345 341 348 350 345 336 336 335 329 345 353 348 341 337 335 337 340 338 331 330 328 326 320 315 314 313 312 309 298 300 299 294 287 282
6 352 359 0 335 340 345 346 345 337 331 327 319 327 340 332 331 332 330 329 330 330 322 316 316 317 316 313 311 309 306 305 301 290 290 291 289 287
10 342 343 352 347 340 341 341 343 343 339 329 318 323 322 324 326 325 324 322 320 323 323 321 315 309 309 311 311 308 304 301 300 292 286 287 285 283
12 1 347 347 350 345 342 345 346 340 335 330 321 322 326 328 328 325 322 322 321 321 321 323 317 312 308 303 302 303 305 303 300 296 288 283 282 280
358 354 1 356 347 345 345 344 339 337 332 332 328 324 323 324 322 324 326 325 325 323 322 320 327 311 302 298 295 297 297 298 299 296 290 287 285 281
338 332 334 345 344 343 344 342 341 335 331 327 322 315 315 320 329 324 324 328 326 325 322 321 323 320 314 308 296 297 294 293 294 291 288 286 284 281
318 317 312 318 334 342 342 343 342 339 325 318 314 316 311 309 309 317 319 328 326 324 319 318 320 319 318 317 311 306 303 301 296 291 288 285 282 279
307 313 307 323 322 328 336 336 335 335 331 319 314 314 312 313 313 315 318 320 322 323 320 316 318 317 315 313 310 304 302 298 297 294 292 288 284 281
302 309 305 307 313 319 326 329 333 333 332 327 315 314 312 312 316 316 320 324 319 318 317 315 322 317 319 315 310 306 300 293 297 296 291 288 284 281
291 300 300 300 304 308 317 321 321 330 330 326 322 319 313 313 316 320 322 321 323 325 326 318 323 320 318 314 311 306 305 300 296 294 291 288 284 279
295 300 298 299 301 307 313 319 324 324 326 320 318 316 316 319 321 322 322 322 322 325 328 323 323 322 318 313 310 307 303 301 298 297 296 291 286 281
299 296 289 297 304 305 311 317 322 324 327 326 325 327 324 320 320 319 318 316 318 319 327 324 321 320 316 316 316 313 309 307 306 304 300 296 293 288
305 305 310 309 310 310 312 317 322 328 324 327 325 325 326 326 325 326 326 325 322 319 323 320 320 321 319 313 317 315 314 312 312 310 306 298 290 284
319 318 316 321 323 318 320 323 327 326 325 325 324 327 328 331 333 328 329 327 325 322 326 324 322 321 320 313 316 319 319 320 319 310 304 290 287 281
322 323 325 324 320 323 323 327 330 329 328 327 329 330 330 330 328 327 331 331 330 331 329 329 326 325 326 322 322 322 319 315 313 312 295 291 288 284
326 325 330 330 329 328 327 332 335 335 336 336 333 335 336 334 332 333 331 330 327 331 337 334 333 330 329 331 331 330 334 308 308 304 296 290 290 280
336 336 334 335 332 331 331 332 336 336 337 338 336 334 333 333 334 334 333 330 333 332 334 334 335 338 338 336 336 341 342 309 309 300 299 290 286 274
346 338 334 332 327 329 333 336 339 338 340 341 341 336 335 335 335 337 337 338 335 336 335 335 334 336 336 348 354 350 348 318 309 302 305 296 286 280
344 338 336 339 349 346 345 345 345 350 350 344 340 341 341 341 340 340 340 340 340 338 340 344 341 340 328 329 351 359 341 325 315 305 303 293 275 270
354 354 353 348 349 354 352 349 346 343 341 339 338 337 340 343 342 342 342 339 341 344 347 347 346 349 344 346 353 356 343 325 317 314 310 304 291 273
3 352 351 352 350 350 353 354 352 350 350 348 347 352 346 342 341 341 340 339 336 342 347 349 352 1 5 2 1 3 358 338 330 327 320 320 306 298
352 351 351 353 355 358 358 359 2 8 11 10 3 351 349 345 342 340 338 338 337 343 342 360 0 1 359 5 5 2 5 339 333 327 335 343 333 306
2 358 355 2 7 15 18 17 18 23 17 9 1 355 351 351 346 340 338 340 337 343 338 350 3 0 0 9 8 11 358 344 340 334 334 335 342 340